This demonstration page uses our WeatherBlox Daily Observations layout. Learn more.

Left ArrowRight Arrow

36.17497, -115.13722

Hourly Observations for April 29, 2017

Temp ( °F °C ) Dew Point ( °F °C ) Humidity (%) Winds ( mph kmh ) Pressure ( in mb ) Visibility ( mi km ) Precip ( " mm )
12:53 am 00:53 Clear 58 14.4 18 -7.8 21 21 NNW 17 28 30.02 1017 10 16.0934 N/A
1:53 am 01:53 Clear 57 13.9 18 -7.8 22 22 N 16 26 30.03 1017 10 16.0934 N/A
2:53 am 02:53 Clear 57 13.9 18 -7.8 22 22 NNW 20 31 30.03 1017 10 16.0934 N/A
3:53 am 03:53 Clear 56 13.3 18 -7.8 22 22 NNW 21 33 30.04 1017 10 16.0934 N/A
4:53 am 04:53 Clear 56 13.3 18 -7.8 22 22 NNW 20 31 30.05 1018 10 16.0934 N/A
5:53 am 05:53 Sunny 55 12.8 19 -7.2 24 24 NNW 17 28 30.06 1018 10 16.0934 N/A
6:53 am 06:53 Sunny 56 13.3 20 -6.7 24 24 N 16 26 30.09 1019 10 16.0934 N/A
7:53 am 07:53 Sunny 59 15 19 -7.2 21 21 NNW 24 39 30.11 1020 10 16.0934 N/A
8:53 am 08:53 Sunny 62 16.7 18 -7.8 18 18 NW 23 37 30.11 1020 10 16.0934 N/A
9:53 am 09:53 Sunny 65 18.3 18 -7.8 16 16 NW 21 33 30.13 1020 10 16.0934 N/A
10:53 am 10:53 Sunny 67 19.4 17 -8.3 15 15 NNW 22 35 30.13 1020 10 16.0934 N/A
11:53 am 11:53 Sunny 70 21.1 15 -9.4 12 12 NNW 16 26 30.11 1020 10 16.0934 N/A
12:12 pm 12:12 Sunny 72 22 16 -9 12 12 NE 13 20 29.97 1015 10 16.0934 N/A
12:53 pm 12:53 Mostly Sunny 71 21.7 15 -9.4 12 12 VRB 5 7 30.09 1019 10 16.0934 N/A
1:53 pm 13:53 Sunny 74 23.3 13 -10.6 9 9 NNE 9 15 30.06 1018 10 16.0934 N/A
2:53 pm 14:53 Sunny 77 25 7 -13.9 7 7 NNW 20 31 30.04 1017 10 16.0934 N/A
3:53 pm 15:53 Sunny 77 25 8 -13.3 7 7 NNW 14 22 30.02 1017 10 16.0934 N/A
4:53 pm 16:53 Sunny 77 25 7 -13.9 7 7 NNW 16 26 30.01 1016 10 16.0934 N/A
5:53 pm 17:53 Sunny 77 25 7 -13.9 7 7 NNW 10 17 30.01 1016 10 16.0934 N/A
6:53 pm 18:53 Sunny 76 24.4 12 -11.1 9 9 NE 8 13 30.02 1017 10 16.0934 N/A
7:53 pm 19:53 Clear 73 22.8 12 -11.1 9 9 NE 8 13 30.02 1017 10 16.0934 N/A
8:53 pm 20:53 Clear 71 21.7 13 -10.6 10 10 NNE 5 7 30.05 1018 10 16.0934 N/A
9:53 pm 21:53 Clear 69 20.6 12 -11.1 11 11 N 3 6 30.09 1019 10 16.0934 N/A
10:53 pm 22:53 Clear 67 19.4 12 -11.1 12 12 NE 3 6 30.11 1020 10 16.0934 N/A
11:53 pm 23:53 Clear 66 18.9 14 -10 13 13 E 5 7 30.12 1020 10 16.0934 N/A

Powered by AerisWeather